Flag for Turkey Weather past 2 weeks in Mersin, Turkey

Now
55 °F

Clear.


Feels Like: 53 °F
Forecast: 44 / 60 °F
Wind: 9 mph from North

Location: Adana / Sakirpasa

Current Time: Jan 26, 2015 at 12:32:29 AM

Latest Report: Jan 25, 2015 at 11:50 PM


Visibility: 10 mi

Pressure: 30.07 "Hg

Humidity: 44%

Dew point: 34 °F

Location of MersinLocation

Historic Weather in Mersin — Graph

°F

Mersin temperature yesterday

Maximum temperature yesterday: 70 °F (at 12:50 PM)
Minimum temperature yesterday: 55 °F (at 12:20 AM)
Average temperature yesterday: 60 °F

Past Weeks' High & Low Weather Summary

 TemperatureHumidityPressure
High70 °F (Jan 25, 12:50 PM)93% (Jan 16, 4:50 AM)30.39 "Hg (Jan 16, 4:50 AM)
Low30 °F (Jan 11, 2:50 AM)23% (Jan 14, 11:50 AM)30.01 "Hg (Jan 15, 11:50 AM)
Average50 °F59%30.18 "Hg
* Reported Jan 10 10:20 PM — Jan 25 10:50 PM, Mersin, Weather by CustomWeather, © 2014

Note: Actual official high and low records may vary slightly from our data, if they occured in-between our weather recording intervals... More about our weather records

Advertising

Mersin weather history for previous 24 hours

 ConditionsComfort  
Time TempWeatherWind HumidityBarometerVisibility
10:50 PM
Jan 25
55 °FClear.9 mph44%30.07 "Hg10 mi
10:20 PM57 °FHaze.10 mph41%30.07 "Hg3 mi
9:50 PM55 °FHaze.8 mph47%30.07 "Hg3 mi
9:20 PM55 °FHaze.8 mph47%30.07 "Hg3 mi
8:50 PM55 °FHaze.8 mph47%30.07 "Hg3 mi
8:20 PM57 °FHaze.12 mph44%30.07 "Hg2 mi
7:50 PM57 °FHaze.10 mph44%30.07 "Hg2 mi
7:20 PM55 °FHaze.9 mph51%30.07 "Hg2 mi
6:50 PM55 °FHaze.7 mph51%30.07 "Hg2 mi
6:20 PM59 °FClear.6 mph45%30.07 "Hg4 mi
5:50 PM61 °FClear.3 mph39%30.07 "Hg4 mi
5:20 PM63 °FClear.3 mph37%30.04 "Hg4 mi
4:50 PM63 °FPassing clouds.5 mph39%30.04 "HgN/A
4:20 PM66 °FSunny.6 mph35%30.01 "Hg10 mi
3:50 PM68 °FSunny.5 mph28%30.01 "Hg10 mi
3:20 PM68 °FSunny.6 mph30%30.01 "Hg10 mi
2:50 PM68 °FPassing clouds.7 mph28%30.01 "HgN/A
2:20 PM70 °FPassing clouds.8 mph27%30.01 "HgN/A
1:50 PM70 °FPassing clouds.7 mph25%30.01 "HgN/A
1:20 PM70 °FSunny.12 mph25%30.01 "Hg10 mi
12:50 PM70 °FSunny.13 mph23%30.01 "Hg10 mi
12:20 PM68 °FSunny.15 mph26%30.04 "Hg10 mi
11:50 AM68 °FSunny.17 mph26%30.04 "Hg10 mi
11:20 AM66 °FSunny.17 mph28%30.07 "Hg10 mi
10:50 AM66 °FSunny.15 mph26%30.07 "Hg10 mi
10:20 AM64 °FSunny.16 mph30%30.07 "Hg10 mi
9:50 AM64 °FPassing clouds.16 mph28%30.07 "HgN/A
9:20 AM63 °FPassing clouds.14 mph30%30.07 "HgN/A
8:50 AM61 °FPassing clouds.13 mph31%30.07 "HgN/A
8:20 AM59 °FPassing clouds.13 mph34%30.07 "HgN/A
7:50 AM57 °FPassing clouds.13 mph36%30.07 "HgN/A
7:20 AM55 °FPassing clouds.13 mph38%30.07 "HgN/A
6:50 AM55 °FPassing clouds.12 mph41%30.04 "HgN/A
6:20 AM55 °FPassing clouds.12 mph41%30.04 "HgN/A
5:50 AM55 °FPassing clouds.12 mph38%30.04 "HgN/A
5:20 AM55 °FPassing clouds.13 mph38%30.04 "HgN/A
4:50 AM55 °FPassing clouds.12 mph41%30.04 "HgN/A
4:20 AM55 °FPassing clouds.13 mph41%30.04 "HgN/A
3:50 AM55 °FPassing clouds.13 mph41%30.04 "HgN/A
3:20 AM55 °FPassing clouds.14 mph41%30.04 "HgN/A
2:50 AM55 °FPassing clouds.13 mph41%30.04 "HgN/A
2:20 AM57 °FPassing clouds.13 mph39%30.04 "HgN/A
1:50 AM55 °FPassing clouds.12 mph41%30.04 "HgN/A
1:20 AM57 °FPassing clouds.13 mph41%30.04 "HgN/A
12:50 AM57 °FPassing clouds.12 mph41%30.07 "HgN/A
12:20 AM55 °FPassing clouds.12 mph44%30.07 "HgN/A
Weather by CustomWeather, © 2014

See weather overviewHow to use our weather pages